CW8095 Weather Reports


time (UTC)temp
F
wind
direction
speed
knots
gust
knots
rain 1hr
in
rain 24hr
in
rain mn
in
humidity
%
barometer
mb
20260906233517 93 114 4.3 8.7 0.00 0.00 0.00 31 1010.8
20260906232527 93 118 4.3 9.6 0.00 0.00 0.00 31 1010.8
20260906231523 94 125 3.5 8.7 0.00 0.00 0.00 31 1010.9
20260906230518 95 123 5.2 12.2 0.00 0.00 0.00 29 1010.8
20260906225528 95 118 3.5 8.7 0.00 0.00 0.00 29 1010.9
20260906224603 96 110 4.3 8.7 0.00 0.00 0.00 27 1010.9
20260906223518 96 120 6.1 12.2 0.00 0.00 0.00 27 1010.9
20260906222528 97 124 4.3 7.0 0.00 0.00 0.00 28 1011.0
20260906221543 97 114 7.0 11.3 0.00 0.00 0.00 28 1011.0
20260906220518 97 114 4.3 11.3 0.00 0.00 0.00 27 1011.1
20260906215528 99 113 4.3 8.7 0.00 0.00 0.00 27 1011.1
20260906214523 98 67 3.5 7.8 0.00 0.00 0.00 28 1011.1
20260906213518 96 130 2.6 8.7 0.00 0.00 0.00 30 1011.2
20260906212528 98 87 5.2 11.3 0.00 0.00 0.00 28 1011.4
20260906211542 98 108 4.3 8.7 0.00 0.00 0.00 28 1011.5
20260906210517 98 109 3.5 7.0 0.00 0.00 0.00 28 1011.6
20260906205527 99 86 4.3 9.6 0.00 0.00 0.00 28 1011.7
20260906204521 99 96 5.2 11.3 0.00 0.00 0.00 28 1011.7
20260906203516 98 64 2.6 7.0 0.00 0.00 0.00 29 1011.8
20260906202526 99 108 3.5 7.0 0.00 0.00 0.00 28 1012.1
20260906201520 97 73 3.5 7.8 0.00 0.00 0.00 30 1012.2
20260906200515 99 127 5.2 9.6 0.00 0.00 0.00 29 1012.2
20260906195524 100 124 3.5 7.8 0.00 0.00 0.00 28 1012.4
20260906194517 99 81 4.3 9.6 0.00 0.00 0.00 29 1012.4
20260906193526 99 84 2.6 6.1 0.00 0.00 0.00 29 1012.6
20260906192520 98 99 5.2 9.6 0.00 0.00 0.00 30 1012.7
20260906191515 98 80 4.3 9.6 0.00 0.00 0.00 31 1012.8
20260906190525 96 88 3.5 9.6 0.00 0.00 0.00 32 1012.9
20260906185520 96 96 3.5 7.0 0.00 0.00 0.00 32 1013.0
20260906184530 97 112 3.5 7.0 0.00 0.00 0.00 30 1013.1
20260906183525 98 135 1.7 5.2 0.00 0.00 0.00 30 1013.2
20260906182519 98 124 1.7 5.2 0.00 0.00 0.00 30 1013.3
20260906181549 98 74 3.5 7.0 0.00 0.00 0.00 32 1013.5
20260906180524 98 113 2.6 3.5 0.00 0.00 0.00 32 1013.6
20260906180025 96 133 1.7 6.1 0.00 0.00 0.00 33 1013.7
20260906175020 97 132 2.6 7.8 0.00 0.00 0.00 33 1013.9
20260906174050 96 80 2.6 5.2 0.00 0.00 0.00 33 1014.0
20260906173024 94 104 2.6 6.1 0.00 0.00 0.00 35 1014.2
20260906172018 95 68 3.5 7.8 0.00 0.00 0.00 35 1014.4
20260906171028 95 73 3.5 9.6 0.00 0.00 0.00 36 1014.7
20260906170023 95 118 2.6 8.7 0.00 0.00 0.00 36 1014.7
20260906165017 96 172 0.9 1.7 0.00 0.00 0.00 36 1014.8
20260906164047 96 95 1.7 3.5 0.00 0.00 0.00 37 1014.8
20260906163022 94 135 2.6 6.1 0.00 0.00 0.00 37 1014.8
20260906162017 94 114 1.7 6.1 0.00 0.00 0.00 40 1014.8
20260906161028 93 65 3.5 7.0 0.00 0.00 0.00 40 1014.8
20260906160022 93 97 1.7 3.5 0.00 0.00 0.00 41 1014.9
20260906155524 92 80 0.9 3.5 0.00 0.00 0.00 42 1014.8
20260906154520 91 59 2.6 6.1 0.00 0.00 0.00 43 1014.8
20260906153541 89 67 0.9 2.6 0.00 0.00 0.00 47 1014.9
20260906152544 88 144 2.6 5.2 0.00 0.00 0.00 48 1014.8
20260906151519 87 130 0.9 3.5 0.00 0.00 0.00 49 1014.6
20260906150529 86 127 1.7 2.6 0.00 0.00 0.00 51 1014.7
20260906145524 85 136 1.7 2.6 0.00 0.00 0.00 51 1014.8
20260906144519 84 114 0.9 3.5 0.00 0.00 0.00 53 1014.7
20260906143529 83 124 1.7 3.5 0.00 0.00 0.00 55 1014.6
20260906142523 82 120 1.7 2.6 0.00 0.00 0.00 57 1014.5
20260906141518 80 108 1.7 3.5 0.00 0.00 0.00 59 1014.6
20260906140528 79 113 0.9 3.5 0.00 0.00 0.00 63 1014.5
20260906135522 77 109 1.7 3.5 0.00 0.00 0.00 65 1014.5
20260906134517 75 104 1.7 3.5 0.00 0.00 0.00 68 1014.4
20260906133527 74 108 0.9 1.7 0.00 0.00 0.00 70 1014.4
20260906132541 73 138 0.9 3.5 0.00 0.00 0.00 72 1014.3
20260906131536 72 106 0.9 1.7 0.00 0.00 0.00 74 1014.4
20260906130525 72 0.0 0.0 0.00 0.00 0.00 73 1014.3
20260906125520 72 78 0.0 1.7 0.00 0.00 0.00 73 1014.1
20260906124530 72 127 0.0 1.7 0.00 0.00 0.00 74 1014.0
20260906123545 71 128 0.9 1.7 0.00 0.00 0.00 74 1014.0
20260906122519 71 119 0.9 2.6 0.00 0.00 0.00 74 1013.9
20260906121529 71 121 0.9 1.7 0.00 0.00 0.00 74 1013.9
20260906120524 71 120 0.9 2.6 0.00 0.00 0.00 74 1013.8
20260906115517 71 134 0.9 1.7 0.00 0.00 0.00 73 1013.8
20260906114527 72 139 0.9 2.6 0.00 0.00 0.00 73 1013.6
20260906113522 72 127 1.7 2.6 0.00 0.00 0.00 74 1013.6
20260906112517 72 137 0.9 1.7 0.00 0.00 0.00 73 1013.4
20260906111527 72 138 0.0 0.9 0.00 0.00 0.00 73 1013.4
20260906110521 72 130 0.0 1.7 0.00 0.00 0.00 73 1013.3
20260906105516 72 123 0.0 0.9 0.00 0.00 0.00 73 1013.2
20260906104526 71 115 0.9 1.7 0.00 0.00 0.00 73 1013.5
20260906103540 72 0.0 0.0 0.00 0.00 0.00 73 1013.2
20260906102530 72 155 0.0 0.9 0.00 0.00 0.00 73 1013.1
20260906101525 72 0.0 0.0 0.00 0.00 0.00 72 1013.1
20260906100519 73 0.0 0.0 0.00 0.00 0.00 70 1012.9
20260906095530 73 0.0 0.0 0.00 0.00 0.00 69 1012.9
20260906094525 73 155 0.0 1.7 0.00 0.00 0.00 69 1012.7
20260906093519 73 155 0.0 1.7 0.00 0.00 0.00 69 1012.5
20260906092529 73 155 0.0 0.9 0.00 0.00 0.00 69 1012.4
20260906091525 73 155 0.0 1.7 0.00 0.00 0.00 69 1012.6
20260906090520 73 155 0.9 1.7 0.00 0.00 0.00 68 1012.6
20260906085517 74 155 0.9 2.6 0.00 0.00 0.00 68 1012.3
20260906084521 74 153 0.0 1.7 0.00 0.00 0.00 68 1012.5
20260906083530 74 163 0.0 2.6 0.00 0.00 0.00 68 1012.4
20260906082525 74 159 0.9 3.5 0.00 0.00 0.00 68 1012.5
20260906081520 74 168 0.9 2.6 0.00 0.00 0.00 67 1012.6
20260906080529 74 144 0.9 2.6 0.00 0.00 0.00 67 1012.7
20260906075525 75 154 0.9 1.7 0.00 0.00 0.00 67 1012.6
20260906074520 75 158 0.9 3.5 0.00 0.00 0.00 66 1012.7
20260906073516 75 158 0.9 2.6 0.00 0.00 0.00 66 1012.6
20260906072525 75 159 1.7 5.2 0.00 0.00 0.00 66 1012.7
20260906071519 75 172 1.7 6.1 0.00 0.00 0.00 66 1012.7
20260906070526 76 151 1.7 5.2 0.00 0.00 0.00 66 1012.9
20260906065524 76 162 2.6 5.2 0.00 0.00 0.00 65 1012.9
20260906064530 76 156 2.6 6.1 0.00 0.00 0.00 65 1013.0
20260906063529 76 155 1.7 5.2 0.00 0.00 0.00 64 1013.1
20260906062531 77 161 1.7 3.5 0.00 0.00 0.00 64 1013.2
20260906061536 77 164 1.7 3.5 0.00 0.00 0.00 64 1013.2
20260906060527 77 161 1.7 5.2 0.00 0.00 0.00 63 1013.2
20260906055516 77 156 1.7 3.5 0.00 0.00 0.00 63 1013.1
20260906054524 78 165 0.9 2.6 0.00 0.00 0.00 62 1013.1
20260906053543 78 158 0.9 3.5 0.00 0.00 0.00 62 1013.0
20260906052520 78 158 1.7 3.5 0.00 0.00 0.00 63 1012.8
20260906051551 78 160 1.7 5.2 0.00 0.00 0.00 62 1012.8
20260906050528 78 165 1.7 3.5 0.00 0.00 0.00 62 1013.0
20260906045554 78 167 1.7 5.2 0.00 0.00 0.00 62 1013.0
20260906044523 79 162 1.7 3.5 0.00 0.00 0.00 61 1012.9
20260906043558 79 154 1.7 6.1 0.00 0.00 0.00 60 1012.9
20260906042528 79 143 0.9 3.5 0.00 0.00 0.00 60 1013.0
20260906041536 79 153 1.7 5.2 0.00 0.00 0.00 59 1012.9
20260906040528 80 144 0.9 3.5 0.00 0.00 0.00 58 1012.8
20260906035525 80 160 0.9 5.2 0.00 0.00 0.00 58 1012.7
20260906034540 80 154 0.9 2.6 0.00 0.00 0.00 57 1012.9
20260906033552 80 156 0.9 3.5 0.00 0.00 0.00 56 1012.9
20260906032526 80 149 1.7 3.5 0.00 0.00 0.00 56 1012.9
20260906031522 81 135 0.9 3.5 0.00 0.00 0.00 55 1012.9
20260906030528 81 138 1.7 5.2 0.00 0.00 0.00 55 1012.9
20260906025524 81 146 1.7 5.2 0.00 0.00 0.00 54 1012.8
20260906024518 81 118 2.6 7.0 0.00 0.00 0.00 54 1012.8
20260906023541 81 137 2.6 7.0 0.00 0.00 0.00 53 1012.7
20260906022524 82 132 3.5 6.1 0.00 0.00 0.00 53 1012.4
20260906021518 82 132 3.5 9.6 0.00 0.00 0.00 52 1012.3
20260906020548 82 131 3.5 7.0 0.00 0.00 0.00 52 1012.1
20260906015522 82 133 2.6 7.0 0.00 0.00 0.00 51 1012.0
20260906014537 82 136 4.3 9.6 0.00 0.00 0.00 51 1011.8
20260906013526 83 135 5.2 7.0 0.00 0.00 0.00 51 1011.7
20260906012527 84 118 5.2 13.9 0.00 0.00 0.00 50 1011.5
20260906011521 84 137 5.2 9.6 0.00 0.00 0.00 48 1011.3
20260906010516 86 133 5.2 12.2 0.00 0.00 0.00 46 1011.4
20260906005527 86 127 5.2 13.9 0.00 0.00 0.00 44 1011.3
20260906004522 87 119 7.0 12.2 0.00 0.00 0.00 43 1011.4
20260906003537 88 132 5.2 9.6 0.00 0.00 0.00 42 1011.2
20260906002527 91 122 7.8 13.9 0.00 0.00 0.00 36 1011.0
20260906001543 92 123 3.5 6.1 0.00 0.00 0.00 33 1010.9
20260906000518 92 113 4.3 7.8 0.00 0.00 0.00 32 1010.8
20260905235528 93 116 5.2 8.7 0.00 0.00 0.00 31 1010.8
20260905234523 95 101 5.2 8.7 0.00 0.00 0.00 30 1010.6